Wind_Speed
23 25 21 28 28 26 22 21 21 22 23 23 19 15 15 13 13 11 11 11 12 10 10 11 10 10 12
17 21 22 25 26 26 24 21 21 23 21 22 19 16 15 14 14 14 14 14 14 13 13 11 9 10 12
14 19 23 22 26 26 25 24 21 21 19 20 17 15 15 16 15 15 15 15 14 13 14 10 10 12 14
16 17 22 22 27 29 26 25 23 22 22 21 18 16 15 15 14 15 14 14 13 12 11 10 11 14 15
17 13 17 16 26 25 24 25 23 23 24 25 22 20 17 16 18 18 17 15 13 11 10 10 13 15 16
24 20 25 24 25 26 24 15 9 25 25 24 21 20 17 19 20 18 16 13 13 12 11 13 14 15 18
32 30 27 29 27 26 27 23 16 13 24 22 21 21 19 19 17 15 14 13 14 11 12 13 13 16 18
31 28 27 24 25 27 27 23 15 13 15 8 12 16 15 17 15 15 14 13 10 9 11 14 16 16 18
25 24 18 14 14 19 21 23 7 11 17 10 8 9 12 14 16 14 13 13 11 13 16 16 14 16 21
17 15 13 12 13 17 22 23 10 5 14 11 7 5 4 8 10 12 13 12 14 16 17 15 17 19 24
17 14 15 17 17 17 16 21 20 5 8 13 7 10 7 4 6 11 12 12 15 16 14 16 20 20 24
20 19 20 19 18 16 15 16 12 8 10 12 7 12 8 4 5 4 8 13 12 15 15 22 23 21 21
23 24 23 20 18 18 14 12 11 9 11 13 11 10 9 6 5 7 11 10 13 11 22 26 26 25 27
25 23 23 22 20 17 16 13 13 11 9 8 8 7 5 6 9 14 14 9 13 18 23 26 26 26 26
26 26 25 21 18 16 17 18 11 14 12 8 5 4 6 10 11 8 7 10 12 19 23 29 29 27 26
22 23 23 21 19 17 18 15 13 14 11 7 3 4 4 4 5 6 6 10 16 18 20 22 32 29 29
22 24 24 21 20 19 18 15 14 12 9 5 2 3 2 1 3 6 7 13 17 21 21 23 29 33 31
Wind_Direction
224 220 219 221 221 225 230 231 227 227 227 231 244 248 250 258 266 272 275 282 288 294 305 307 309 311 315
212 213 218 222 225 224 224 227 228 229 229 239 240 242 253 260 265 272 275 282 288 296 298 302 298 308 316
200 209 215 219 214 217 220 224 227 231 236 236 241 247 256 261 265 269 273 283 290 295 297 292 293 308 317
205 204 209 215 214 208 213 221 226 232 223 235 243 248 249 257 262 266 276 287 290 293 288 285 295 307 311
203 197 201 196 202 208 216 223 229 226 225 232 235 242 249 244 253 264 277 281 282 287 273 284 302 304 306
208 208 214 212 208 210 209 201 218 226 227 230 235 244 248 257 257 263 270 273 279 283 271 292 302 305 307
221 220 219 224 219 216 217 210 213 201 210 222 231 240 255 253 254 261 256 267 271 276 289 294 302 303 304
238 241 244 245 246 243 225 209 208 205 200 198 227 237 242 252 254 254 261 261 265 285 293 303 308 307 305
238 246 242 233 230 214 199 186 180 194 198 203 212 226 251 254 254 255 229 242 271 293 304 309 314 313 303
213 211 213 213 218 222 218 188 176 170 204 202 214 211 257 240 224 227 240 258 283 303 305 306 316 316 309
206 197 186 186 193 201 211 213 195 155 180 197 217 213 229 232 235 241 257 266 290 303 303 312 321 319 306
175 170 171 172 172 178 188 196 204 221 194 210 216 209 215 236 254 272 275 297 298 314 315 320 321 320 314
174 172 171 167 171 164 168 175 180 185 192 199 220 223 226 227 264 289 323 310 314 327 324 320 321 323 322
181 175 171 168 171 178 170 176 168 157 176 194 207 219 241 267 281 294 307 305 315 327 323 317 320 324 324
184 182 180 178 180 183 177 172 170 170 173 184 198 245 279 282 288 307 313 303 319 323 324 321 320 329 331
193 190 183 182 176 176 184 182 177 173 174 178 235 294 303 300 287 288 292 312 318 318 320 320 319 331 331
197 191 188 184 176 181 180 175 164 164 169 184 266 352 36 312 284 268 289 315 317 317 323 320 309 320 326
Height
854 857 860 863 866 870 873 875 877 880 882 883 885 886 885 886 886 886 885 884 884 882 880 880 880 878 877
851 854 857 859 862 867 870 872 875 876 877 879 880 882 884 884 884 884 883 881 881 878 878 876 876 874 872
847 850 853 855 858 862 865 867 870 873 874 877 878 879 881 881 881 881 880 878 877 876 876 873 871 871 869
843 845 848 851 854 856 861 862 865 869 870 874 874 876 878 878 880 878 877 874 872 872 873 871 867 866 864
838 840 843 846 849 851 854 857 860 863 865 867 867 869 872 874 875 874 873 871 869 867 869 867 864 863 860
833 834 836 839 844 844 849 855 858 858 861 862 864 866 868 868 869 870 869 868 868 866 865 863 860 857 856
826 827 830 832 837 840 842 846 850 850 853 857 858 859 863 864 865 864 865 864 864 864 862 859 854 851 850
820 823 826 829 831 832 836 844 848 850 853 854 855 858 860 861 862 862 863 862 861 859 858 853 850 847 845
816 819 821 824 826 830 835 841 845 845 847 850 852 853 856 857 858 859 859 858 857 854 852 848 845 842 841
811 814 817 820 824 827 831 835 840 844 846 850 850 852 853 852 853 855 855 854 852 850 847 844 841 838 837
809 813 815 818 822 826 829 833 836 838 841 846 847 851 853 853 850 850 850 849 847 845 843 840 837 837 834
806 812 815 818 822 824 829 833 835 837 839 843 846 849 849 849 848 846 847 845 842 841 838 834 834 833 831
806 810 814 818 821 825 828 831 832 835 839 840 844 846 846 844 845 844 843 840 838 837 833 831 831 828 822
805 811 815 817 821 823 826 828 832 834 838 841 843 843 841 844 844 842 840 839 835 834 832 829 827 823 819
806 811 813 816 819 823 826 829 830 834 839 842 840 840 840 840 838 837 837 836 835 834 831 826 820 818 813
805 809 811 816 819 824 827 830 833 835 838 840 840 840 839 837 836 834 835 835 834 833 831 827 816 811 808
803 805 811 816 819 823 827 829 831 833 836 838 840 839 839 839 836 834 835 834 832 830 827 823 817 807 803